TimeEST,TemperatureF,Dew PointF,Humidity,Sea Level PressureIn,VisibilityMPH,Wind Direction,Wind SpeedMPH,Gust SpeedMPH,PrecipitationIn,Events,Conditions,WindDirDegrees,DateUTC
12:53 AM,60.1,39.9,47,30.07,10.0,SSW,15.0,21.9,N/A,,Clear,200,2012-11-11 05:53:00
1:53 AM,59.0,39.0,48,30.06,10.0,SSW,13.8,25.3,N/A,,Clear,200,2012-11-11 06:53:00
2:53 AM,57.9,39.0,49,30.08,10.0,SSW,12.7,23.0,N/A,,Clear,200,2012-11-11 07:53:00
3:53 AM,57.0,39.0,51,30.09,10.0,SSW,12.7,23.0,N/A,,Clear,200,2012-11-11 08:53:00
4:53 AM,55.0,39.0,55,30.10,10.0,South,12.7,-,N/A,,Clear,190,2012-11-11 09:53:00
5:53 AM,55.0,39.0,55,30.12,10.0,SSW,11.5,-,N/A,,Clear,200,2012-11-11 10:53:00
6:53 AM,53.1,39.0,59,30.14,10.0,South,12.7,-,N/A,,Clear,190,2012-11-11 11:53:00
7:53 AM,53.1,37.9,57,30.14,10.0,South,13.8,-,N/A,,Clear,190,2012-11-11 12:53:00
8:53 AM,55.9,39.0,53,30.14,10.0,SSW,17.3,25.3,N/A,,Clear,200,2012-11-11 13:53:00
10:53 AM,62.1,41.0,46,30.14,10.0,SSW,20.7,31.1,N/A,,Mostly Cloudy,200,2012-11-11 15:53:00
11:53 AM,64.9,43.0,45,30.09,10.0,SSW,21.9,31.1,N/A,,Partly Cloudy,200,2012-11-11 16:53:00
12:53 PM,66.9,44.1,44,30.06,10.0,South,17.3,29.9,N/A,,Clear,190,2012-11-11 17:53:00
1:53 PM,66.9,44.1,44,30.04,10.0,South,24.2,28.8,N/A,,Clear,190,2012-11-11 18:53:00
2:53 PM,64.9,44.1,47,30.04,10.0,South,17.3,27.6,N/A,,Clear,190,2012-11-11 19:53:00
3:53 PM,64.0,44.1,48,30.03,10.0,South,18.4,27.6,N/A,,Clear,190,2012-11-11 20:53:00
4:53 PM,64.0,43.0,46,30.01,10.0,South,15.0,25.3,N/A,,Clear,180,2012-11-11 21:53:00
5:53 PM,64.0,41.0,43,30.00,10.0,South,17.3,25.3,N/A,,Clear,180,2012-11-11 22:53:00
6:53 PM,63.0,36.0,37,29.99,10.0,South,13.8,21.9,N/A,,Clear,180,2012-11-11 23:53:00
7:53 PM,63.0,35.1,35,29.98,10.0,South,19.6,31.1,N/A,,Clear,170,2012-11-12 00:53:00
8:53 PM,62.1,35.1,37,29.97,10.0,South,20.7,31.1,N/A,,Clear,180,2012-11-12 01:53:00
9:53 PM,62.1,37.0,39,29.96,10.0,South,20.7,31.1,N/A,,Partly Cloudy,180,2012-11-12 02:53:00
10:53 PM,62.1,41.0,46,29.96,10.0,SSW,19.6,31.1,N/A,,Mostly Cloudy,200,2012-11-12 03:53:00
11:53 PM,61.0,43.0,52,29.97,10.0,South,16.1,23.0,N/A,,Mostly Cloudy,190,2012-11-12 04:53:00